Location: Santa Maria di Sala
(45.5070°N, 12.0300°E)
Time: 21:28:06
(UTC+01:00)

LilacSat-2 - Visible Passes

Search period start: 26 February 2024 00:00
Search period end: 07 March 2024 00:00
Orbit: 485 x 504 km, 97.5° (Epoch: 26 February)

Date Brightness Start Highest point End Pass type
(mag) Time Alt. Az. Time Alt. Az. Time Alt. Az.
26 Feb ? 06:10:50 10° NNE 06:14:18 40° E 06:17:46 10° S visible
26 Feb ? 18:24:07 10° SSW 18:27:04 23° W 18:30:01 10° NW visible
27 Feb ? 05:49:49 10° NE 05:52:47 23° E 05:55:44 10° SSE visible
28 Feb ? 05:29:22 10° ENE 05:31:11 13° E 05:33:00 10° ESE visible
29 Feb ? 18:55:31 10° WSW 18:56:35 11° W 18:57:38 10° WNW visible
01 Mar ? 18:32:14 10° SW 18:34:53 19° W 18:37:34 10° NW visible
02 Mar ? 05:57:23 10° NE 06:00:35 28° E 06:03:46 10° SSE visible
03 Mar ? 05:36:34 10° NE 05:38:55 16° E 05:41:16 10° SE visible
05 Mar ? 18:40:05 10° SW 18:42:24 16° W 18:44:45 10° NW visible
06 Mar ? 06:04:40 10° NNE 06:08:03 33° E 06:11:25 10° SSE visible
